Weather Roundup
Issued by NWS

Home | Current Version | Previous Version | Graphics & Text | Print | Product List | Glossary Off
Versions: 1 2 3 4 5 6 7 8 9 10 11 12 13 14 15 16 17 18 19 20 21 22 23 24 25 26 27 28 29 30 31 32 33 34 35 36 37 38 39 40 41 42 43 44 45 46 47 48 49 50

000
NZUS93 KARX 200459
HRRWXR

CURRENT HOURLY OBSERVATIONS ACROSS
MUCH OF THE UPPER MISSISSIPPI VALLEY
NATIONAL WEATHER SERVICE LA CROSSE WI
1100 PM CST SUN NOV 19 2017


...SOUTHEAST MINNESOTA...


CITY           SKY/WX    TMP DP  RH WIND       PRES   REMARKS
ROCHESTER      CLOUDY    32  27  81 S13       29.84F WCI  22
ROCHESTER/MAYO FAIR      36  27  70 S8        29.85F WCI  29
WINONA         CLOUDY    37  28  70 SW9       29.87F WCI  31
AUSTIN         NOT AVBL
ALBERT LEA     CLOUDY    37  27  65 S7        29.83F WCI  32
DODGE CENTER   CLOUDY    34  27  75 S12       29.83F WCI  25
PRESTON        CLOUDY    33  25  73 SW13      29.87F WCI  24
OWATONNA       CLOUDY    36  28  75 S12       29.82F WCI  27
FARIBAULT      CLOUDY    34  27  75 S5        29.82F WCI  30
$$

...ELSEWHERE IN MINNESOTA...


CITY           SKY/WX    TMP DP  RH WIND       PRES   REMARKS
MINNEAPOLIS    CLOUDY    37  27  67 SW3       29.79F
INTNL FALLS    CLOUDY    13   9  84 SE3       29.73F
DULUTH         PTCLDY    20  17  88 SE6       29.75S WCI  12
RED WING       CLOUDY    34  25  69 CALM      29.82F
REDWOOD FALLS  CLOUDY    34  23  64 S9        29.77F WCI  27
MANKATO        CLOUDY    34  26  72 S9        29.81F WCI  27
WORTHINGTON    CLOUDY    37  25  61 SW12      29.79F WCI  29
FAIRMONT       CLOUDY    36  28  73 S8        29.82F WCI  30
$$

...SOUTHWEST WISCONSIN...


CITY           SKY/WX    TMP DP  RH WIND       PRES   REMARKS
LA CROSSE      CLOUDY    35  26  69 SE9       29.89F WCI  28
PRAIRIE DU CHI CLOUDY    35  23  60 CALM      29.96S
BOSCOBEL       CLOUDY    31  22  69 SW6       29.95F WCI  25
LONE ROCK      NOT AVBL
PLATTEVILLE    CLOUDY    29  25  82 S8        29.98F WCI  22
FORT MC COY    CLOUDY    31  24  74 S3        29.90F
CAMP DOUGLAS   CLEAR    N/A N/A N/A SW7       29.90F
MAUSTON-NEW LI CLEAR     33  22  66 SW13G18   29.89F WCI  23
VIROQUA        FAIR      31  26  81 SW9       29.90S WCI  23
WIS DELLS      CLEAR     31  22  67 SW12G17   29.92F WCI  22
$$

...ELSEWHERE IN WISCONSIN...


CITY           SKY/WX    TMP DP  RH WIND       PRES   REMARKS
MILWAUKEE      MOCLDY    32  21  64 SW10      29.99F WCI  24
MADISON        PTCLDY    32  22  66 SW10G20   29.95F WCI  24
GREEN BAY      CLEAR     30  21  69 SW7       29.90F WCI  23
EAU CLAIRE     NOT AVBL
BLACK RVR FLS  FAIR      18  18 100 CALM      29.87F
MEDFORD        CLEAR     21  17  84 S6        29.81F WCI  14
WAUSAU         CLOUDY    25  17  72 CALM      29.83F
WIS RAPIDS     PTCLDY    27  20  75 SW7       29.88F WCI  19
MARSHFIELD     CLEAR     23  17  78 SW5       29.83F WCI  17
RICE LAKE      CLEAR     23  18  81 SE3       29.81F
$$

...NORTHEAST IOWA...


CITY           SKY/WX    TMP DP  RH WIND       PRES   REMARKS
WATERLOO       PTCLDY    34  26  72 S10       29.91F WCI  26
DUBUQUE        CLOUDY    29  23  78 S10       29.97F WCI  20
DECORAH        CLOUDY    34  27  75 S8        29.89F WCI  27
MASON CITY     CLOUDY    36  27  69 SW13      29.86F WCI  27
CHARLES CITY   CLOUDY    34  28  80 S10       29.89F WCI  26
OELWEIN        CLOUDY    32  28  86 S9        29.93F WCI  24
$$

...ELSEWHERE IN IOWA...


CITY           SKY/WX    TMP DP  RH WIND       PRES   REMARKS
DES MOINES     PTCLDY    38  27  64 S13       29.94F WCI  30
IOWA CITY      CLOUDY    35  26  69 S7        30.02F WCI  29
FORT DODGE     CLOUDY    38  27  64 SW13      29.87F WCI  30
MARSHALLTOWN   CLOUDY    38  28  67 S15       29.92F WCI  29
CEDAR RAPIDS   CLOUDY    33  26  75 S12       29.96F WCI  24
$$

...NORTHERN ILLINOIS...


CITY           SKY/WX    TMP DP  RH WIND       PRES   REMARKS
CHICAGO-OHARE  PTCLDY    30  20  66 SW9       30.05F WCI  22
CHICAGO-MIDWAY NOT AVBL
MOLINE         CLOUDY    35  23  61 SW9       30.04F WCI  28
ROCKFORD       CLOUDY    26  21  81 S6        30.05F WCI  19
PEORIA         PTCLDY    29  22  75 S6        30.10F WCI  23
$$

NOTE: "FAIR" INDICATES FEW OR NO CLOUDS BELOW 12,000 FEET WITH NO
SIGNIFICANT WEATHER AND/OR OBSTRUCTIONS TO VISIBILITY. WIND
SPEEDS ARE IN MILES-PER-HOUR.




USA.gov is the U.S. government's official web portal to all federal, state and local government web resources and services.